When you browse on this site, cookies collect data to enhance your experience and personalize the content and advertising you see.
Visit our Privacy Policy to learn more. By continuing to use the site, you agree to this use of cookies and data.
  • In Hungary
  • List of Countries
  • For 7 days
  • Water Temperature
  • Weather Map
  • News
  • Weather Widgets
  • user-avatar
    Login

    Hourly Weather Muratbaevo

    Today, 13 December, Friday

    Time Temperature Precipitation Wind Pressure Humidity
    00:00 +2°C° 0.6 mm 5 mps 723 mmHg 91%
    01:00 +2°C° 0.6 mm 5 mps 722 mmHg 93%
    02:00 +1°C° 0.6 mm 6 mps 722 mmHg 95%
    03:00 +1°C° 0.7 mm 6 mps 722 mmHg 93%
    04:00 +1°C° 0.7 mm 6 mps 722 mmHg 92%
    05:00 0°C° 0 mm 7 mps 722 mmHg 89%
    06:00 +1°C° 0.2 mm 6 mps 722 mmHg 88%
    07:00 -1°C° 0.2 mm 6 mps 722 mmHg 87%
    08:00 -1°C° 0.2 mm 6 mps 722 mmHg 86%
    09:00 -1°C° 0.3 mm 7 mps 722 mmHg 80%
    10:00 -1°C° 0.3 mm 8 mps 722 mmHg 74%
    11:00 0°C° 0.3 mm 10 mps 722 mmHg 68%
    12:00 -1°C° 1.2 mm 9 mps 722 mmHg 76%
    13:00 -1°C° 1.2 mm 7 mps 721 mmHg 84%
    14:00 -2°C° 1.2 mm 6 mps 721 mmHg 92%
    15:00 -2°C° 2.3 mm 6 mps 721 mmHg 94%
    16:00 -2°C° 2.3 mm 5 mps 721 mmHg 96%
    17:00 -2°C° 2.3 mm 5 mps 721 mmHg 98%
    18:00 -2°C° 1.7 mm 5 mps 721 mmHg 98%
    19:00 -2°C° 1.7 mm 4 mps 721 mmHg 98%
    20:00 -3°C° 1.7 mm 4 mps 722 mmHg 98%
    21:00 -3°C° 0.8 mm 4 mps 722 mmHg 96%
    22:00 -4°C° 0.8 mm 4 mps 722 mmHg 93%
    23:00 -5°C° 0.8 mm 3 mps 723 mmHg 91%

    Tomorrow, 14 December, Saturday

    Time Temperature Precipitation Wind Pressure Humidity
    00:00 -6°C° 0.1 mm 3 mps 723 mmHg 92%
    01:00 -6°C° 0.1 mm 2 mps 723 mmHg 93%
    02:00 -7°C° 0.1 mm 2 mps 724 mmHg 95%
    03:00 -6°C° 0.1 mm 1 mps 724 mmHg 95%
    04:00 -6°C° 0.1 mm 1 mps 725 mmHg 95%
    05:00 -6°C° 0.1 mm 1 mps 726 mmHg 96%
    06:00 -6°C° 0.2 mm 1 mps 726 mmHg 96%
    07:00 -6°C° 0.2 mm 1 mps 727 mmHg 96%
    08:00 -6°C° 0.2 mm 1 mps 727 mmHg 96%
    09:00 -4°C° 0.1 mm 1 mps 728 mmHg 94%
    10:00 -3°C° 0.1 mm 1 mps 728 mmHg 92%
    11:00 -3°C° 0.1 mm 1 mps 729 mmHg 91%
    12:00 -2°C° 0 mm 1 mps 729 mmHg 89%
    13:00 -2°C° 0 mm 1 mps 729 mmHg 87%
    14:00 -2°C° 0 mm 1 mps 729 mmHg 86%
    15:00 -2°C° 0 mm 1 mps 730 mmHg 87%
    16:00 -3°C° 0 mm 1 mps 730 mmHg 88%
    17:00 -4°C° 0 mm 1 mps 730 mmHg 89%
    18:00 -4°C° 0 mm 1 mps 731 mmHg 85%
    19:00 -6°C° 0 mm 1 mps 731 mmHg 82%
    20:00 -7°C° 0 mm 2 mps 732 mmHg 78%
    21:00 -6°C° 0 mm 1 mps 732 mmHg 77%
    22:00 -6°C° 0 mm 1 mps 732 mmHg 76%
    23:00 -6°C° 0 mm 1 mps 732 mmHg 75%

    Day after tomorrow, 15 December, Sunday

    Time Temperature Precipitation Wind Pressure Humidity
    00:00 -6°C° 0 mm 1 mps 732 mmHg 75%
    01:00 -6°C° 0 mm 1 mps 732 mmHg 75%
    02:00 -6°C° 0 mm 1 mps 732 mmHg 75%
    03:00 -7°C° 0 mm 2 mps 732 mmHg 76%
    04:00 -7°C° 0 mm 2 mps 732 mmHg 77%
    05:00 -7°C° 0 mm 2 mps 732 mmHg 77%
    06:00 -7°C° 0 mm 2 mps 732 mmHg 78%
    07:00 -7°C° 0 mm 2 mps 732 mmHg 78%
    08:00 -8°C° 0 mm 3 mps 733 mmHg 79%
    09:00 -7°C° 0 mm 3 mps 733 mmHg 78%
    10:00 -5°C° 0 mm 3 mps 733 mmHg 78%
    11:00 -4°C° 0 mm 3 mps 733 mmHg 77%
    12:00 -4°C° 0 mm 3 mps 733 mmHg 77%
    13:00 -3°C° 0 mm 4 mps 733 mmHg 77%
    14:00 -3°C° 0 mm 4 mps 732 mmHg 77%
    15:00 -4°C° 0 mm 4 mps 732 mmHg 76%
    16:00 -5°C° 0 mm 5 mps 732 mmHg 75%
    17:00 -6°C° 0 mm 5 mps 732 mmHg 74%
    18:00 -6°C° 0 mm 5 mps 732 mmHg 75%
    19:00 -6°C° 0 mm 5 mps 733 mmHg 75%
    20:00 -6°C° 0 mm 5 mps 733 mmHg 75%
    21:00 -6°C° 0 mm 5 mps 733 mmHg 73%
    22:00 -6°C° 0 mm 5 mps 733 mmHg 72%
    23:00 -6°C° 0 mm 5 mps 733 mmHg 71%

    16 December, Monday

    Time Temperature Precipitation Wind Pressure Humidity
    00:00 -6°C° 0 mm 5 mps 732 mmHg 71%
    01:00 -6°C° 0 mm 5 mps 732 mmHg 71%
    02:00 -5°C° 0 mm 5 mps 732 mmHg 72%
    03:00 -5°C° 0 mm 5 mps 732 mmHg 71%
    04:00 -5°C° 0 mm 5 mps 732 mmHg 70%
    05:00 -5°C° 0 mm 5 mps 732 mmHg 70%
    06:00 -5°C° 0 mm 5 mps 733 mmHg 68%
    07:00 -5°C° 0 mm 5 mps 733 mmHg 67%
    08:00 -5°C° 0 mm 5 mps 733 mmHg 66%
    09:00 -3°C° 0 mm 4 mps 733 mmHg 65%
    10:00 -2°C° 0 mm 4 mps 733 mmHg 65%
    11:00 0°C° 0 mm 4 mps 733 mmHg 65%
    12:00 0°C° 0 mm 4 mps 733 mmHg 66%
    13:00 0°C° 0 mm 4 mps 733 mmHg 67%
    14:00 0°C° 0 mm 4 mps 732 mmHg 68%
    15:00 -1°C° 0 mm 4 mps 732 mmHg 68%
    16:00 -2°C° 0 mm 4 mps 732 mmHg 67%
    17:00 -3°C° 0 mm 4 mps 732 mmHg 67%
    18:00 -3°C° 0 mm 4 mps 732 mmHg 67%
    19:00 -3°C° 0 mm 4 mps 732 mmHg 66%
    20:00 -3°C° 0 mm 4 mps 732 mmHg 65%
    21:00 -3°C° 0 mm 4 mps 732 mmHg 64%
    22:00 -4°C° 0 mm 4 mps 732 mmHg 62%
    23:00 -4°C° 0 mm 3 mps 732 mmHg 60%

    17 December, Tuesday

    Time Temperature Precipitation Wind Pressure Humidity
    00:00 -4°C° 0 mm 3 mps 732 mmHg 58%
    01:00 -3°C° 0 mm 2 mps 731 mmHg 55%
    02:00 -3°C° 0 mm 2 mps 731 mmHg 52%
    03:00 -3°C° 0 mm 2 mps 731 mmHg 49%
    04:00 -1°C° 0 mm 1 mps 731 mmHg 47%
    05:00 -1°C° 0 mm 1 mps 731 mmHg 44%
    06:00 -1°C° 0 mm 1 mps 731 mmHg 43%
    07:00 -1°C° 0 mm 1 mps 732 mmHg 42%
    08:00 -1°C° 0 mm 1 mps 732 mmHg 42%
    09:00 0°C° 0 mm 1 mps 732 mmHg 44%
    10:00 +2°C° 0 mm 1 mps 732 mmHg 45%
    11:00 +3°C° 0 mm 1 mps 732 mmHg 47%
    12:00 +3°C° 0 mm 1 mps 732 mmHg 48%
    13:00 +4°C° 0 mm 1 mps 732 mmHg 49%
    14:00 +4°C° 0 mm 1 mps 731 mmHg 51%
    15:00 +3°C° 0 mm 1 mps 731 mmHg 48%
    16:00 +1°C° 0 mm 1 mps 731 mmHg 45%
    17:00 -2°C° 0 mm 2 mps 730 mmHg 43%
    18:00 -2°C° 0 mm 2 mps 730 mmHg 40%
    19:00 -2°C° 0 mm 2 mps 730 mmHg 38%
    20:00 -2°C° 0 mm 2 mps 730 mmHg 36%
    21:00 -2°C° 0 mm 2 mps 730 mmHg 37%
    22:00 -2°C° 0 mm 2 mps 730 mmHg 38%
    23:00 -3°C° 0 mm 2 mps 730 mmHg 38%

    18 December, Wednesday

    Time Temperature Precipitation Wind Pressure Humidity
    00:00 -2°C° 0 mm 2 mps 730 mmHg 42%
    01:00 -2°C° 0 mm 2 mps 730 mmHg 45%
    02:00 -2°C° 0 mm 2 mps 730 mmHg 48%
    03:00 -2°C° 0 mm 2 mps 730 mmHg 50%
    04:00 -3°C° 0 mm 2 mps 730 mmHg 52%
    05:00 -3°C° 0 mm 2 mps 730 mmHg 53%
    06:00 -3°C° 0 mm 2 mps 730 mmHg 53%
    07:00 -1°C° 0 mm 1 mps 730 mmHg 53%
    08:00 -1°C° 0 mm 1 mps 730 mmHg 53%
    09:00 0°C° 0 mm 1 mps 730 mmHg 54%
    10:00 +2°C° 0 mm 1 mps 731 mmHg 56%
    11:00 +3°C° 0 mm 1 mps 731 mmHg 58%
    12:00 +3°C° 0 mm 1 mps 730 mmHg 59%
    13:00 +3°C° 0 mm 1 mps 730 mmHg 60%
    14:00 +4°C° 0 mm 1 mps 729 mmHg 61%
    15:00 +2°C° 0 mm 1 mps 729 mmHg 60%
    16:00 +1°C° 0 mm 1 mps 729 mmHg 58%
    17:00 -1°C° 0 mm 1 mps 729 mmHg 57%
    18:00 -1°C° 0 mm 1 mps 729 mmHg 56%
    19:00 -1°C° 0 mm 1 mps 729 mmHg 55%
    20:00 -3°C° 0 mm 2 mps 729 mmHg 54%
    21:00 -3°C° 0 mm 2 mps 729 mmHg 52%
    22:00 -1°C° 0 mm 1 mps 729 mmHg 51%
    23:00 -1°C° 0 mm 1 mps 729 mmHg 50%
    Show more